Temperature
11 11 10 10 11 11 11 11 11 11 11 11 11 11 11 11 11 11 11 11 11 11 11 11 11 11 10 10 10 10 10 10 10 10 10 10 10 10 10 11 11 11 11
10 10 10 10 10 10 10 10 10 10 10 10 10 10 10 10 10 10 10 10 10 10 10 10 10 10 10 10 10 10 10 10 10 10 10 10 10 10 10 10 10 10 10
10 9 10 10 10 10 10 10 10 10 10 10 10 10 10 10 10 10 10 10 10 10 10 10 10 10 10 10 9 9 9 10 9 9 10 10 10 10 10 10 10 10 10
9 9 9 9 9 9 9 9 9 9 9 9 9 10 10 10 10 10 10 10 10 10 10 10 10 9 9 9 9 9 9 9 9 9 9 9 9 9 9 9 9 9 9
8 8 8 9 9 9 9 9 9 9 9 9 9 9 9 9 9 9 9 9 9 9 9 9 9 9 9 9 9 9 9 9 9 8 8 8 9 9 9 9 9 9 9
8 8 8 8 8 8 8 8 8 8 8 8 8 9 9 9 9 9 9 9 9 9 9 8 8 8 8 8 8 8 8 8 8 8 8 8 8 8 8 8 8 8 8
7 7 7 7 7 8 8 8 8 8 8 8 8 8 8 8 8 8 8 8 8 8 8 8 8 8 8 8 8 8 8 7 7 7 7 7 7 8 8 8 8 8 8
6 7 7 7 7 7 7 7 7 7 7 7 6 6 6 7 7 7 7 7 7 7 7 7 7 7 7 7 7 7 7 7 7 7 7 7 7 7 7 7 7 7 7
6 6 6 6 6 6 6 7 6 6 6 6 6 5 5 5 5 6 6 6 6 6 7 7 7 7 7 7 7 7 6 6 6 7 6 6 6 6 6 6 6 7 7
5 5 5 5 6 6 6 6 6 6 6 5 5 5 5 5 4 4 5 5 6 6 6 6 6 6 6 6 6 6 6 6 6 6 6 6 6 6 6 6 6 6 6
5 5 5 5 5 5 5 5 5 5 5 5 5 4 4 4 4 4 4 4 5 5 5 5 6 6 6 6 6 6 6 6 6 6 6 6 6 5 5 5 5 5 5
4 4 4 4 4 4 5 5 5 4 4 4 4 4 4 4 4 3 3 3 4 4 5 5 5 5 5 5 5 5 5 5 5 5 5 5 5 5 5 5 5 5 5
4 4 4 4 4 4 4 4 4 4 4 4 4 4 4 3 3 3 3 3 3 3 3 4 4 4 4 4 5 5 5 5 5 4 4 4 4 5 5 5 5 5 5
3 3 3 3 3 3 3 3 3 3 3 3 3 3 3 3 3 3 2 2 2 2 2 3 3 4 4 4 4 4 4 4 4 4 4 4 4 4 4 4 4 4 4
2 2 3 3 3 3 3 3 3 3 3 3 3 3 3 3 2 2 2 2 2 1 1 2 2 3 3 3 3 3 3 3 3 3 3 3 3 3 3 3 4 4 4
2 2 2 2 2 2 2 2 2 2 2 2 2 2 2 2 2 2 2 2 2 1 1 1 2 2 2 2 2 2 3 2 2 3 2 3 3 3 3 3 3 3 3
1 1 2 2 2 2 2 2 2 2 2 2 2 2 2 2 2 2 2 1 1 1 1 1 1 1 1 2 2 2 2 2 2 2 2 2 2 2 2 3 3 3 3
1 1 1 1 1 1 1 1 1 1 1 1 1 1 1 1 1 1 1 1 1 1 1 1 1 1 1 1 1 1 1 1 2 2 2 2 2 2 2 2 3 3 3
1 1 1 1 1 1 1 1 1 1 1 1 1 1 1 1 1 1 1 1 1 1 0 0 0 0 0 0 0 0 1 1 1 1 1 1 1 2 2 2 2 2 2
0 0 0 0 0 0 0 0 0 0 0 0 0 0 0 0 0 0 0 0 0 0 0 -0 -0 -0 -0 -0 -1 -0 -0 0 0 0 0 0 1 1 1 1 2 2 2
-0 -0 -0 -0 -0 -0 -1 -1 -0 -0 -0 -0 -0 -0 -0 -0 -0 -0 -0 -0 -0 -0 -0 -1 -1 -1 -1 -1 -1 -1 -1 -0 0 -0 0 0 0 0 1 1 1 1 1
-1 -1 -1 -1 -1 -1 -1 -1 -1 -1 -1 -1 -1 -1 -1 -1 -1 -1 -1 -1 -1 -1 -1 -1 -1 -1 -1 -1 -1 -1 -1 -1 -1 -1 -1 -0 -0 -0 0 0 1 1 1
-1 -1 -1 -1 -1 -1 -1 -1 -1 -1 -1 -1 -1 -1 -1 -1 -1 -1 -1 -1 -1 -1 -1 -1 -1 -1 -1 -1 -1 -1 -1 -1 -1 -1 -1 -1 -1 -1 -0 0 0 0 0
-2 -2 -2 -2 -2 -2 -2 -2 -2 -2 -2 -2 -2 -2 -2 -1 -1 -1 -1 -1 -1 -1 -1 -2 -2 -2 -2 -2 -2 -2 -2 -2 -2 -2 -2 -2 -1 -1 -1 -0 0 0 0
-2 -2 -2 -2 -2 -2 -2 -2 -2 -2 -2 -2 -2 -2 -2 -2 -2 -2 -2 -2 -2 -2 -2 -2 -2 -2 -2 -2 -2 -2 -2 -2 -2 -2 -2 -2 -2 -1 -1 -0 -0 -0 -0
-3 -3 -3 -3 -3 -3 -3 -3 -3 -3 -3 -3 -3 -3 -3 -3 -3 -2 -2 -2 -2 -2 -2 -2 -2 -2 -2 -2 -2 -2 -2 -2 -2 -2 -2 -2 -2 -2 -2 -1 -1 -0 -0
Wind_Speed
0 1 1 1 1 1 1 1 2 2 2 2 2 2 3 4 4 5 5 8 9 9 9 9 9 9 9 8 8 8 8 8 8 9 9 9 9 9 10 10 10 11 11
1 0 1 1 1 2 1 1 2 2 2 2 3 3 3 4 5 5 6 7 9 9 10 10 9 9 9 9 9 9 9 9 9 9 9 10 10 10 10 11 11 11 11
1 1 1 1 2 2 2 1 2 1 2 2 3 4 3 4 5 5 6 6 6 7 9 10 10 10 10 10 10 10 10 10 10 10 10 10 10 11 11 12 12 12 13
1 0 1 2 2 2 1 1 1 1 2 2 3 4 3 4 5 5 5 5 5 5 6 8 10 11 11 11 11 11 11 11 11 11 10 10 11 11 12 12 13 13 13
1 1 1 2 1 1 1 1 1 1 2 3 3 4 3 4 4 4 4 4 4 5 5 7 9 10 11 12 12 12 12 12 11 11 11 11 12 12 12 13 13 13 14
1 1 1 2 1 1 1 1 1 1 2 2 3 4 4 4 3 3 4 3 3 4 5 5 6 7 10 11 12 12 12 12 12 11 12 12 12 12 13 13 13 13 14
2 1 1 2 2 2 2 2 1 2 1 1 1 3 4 3 3 3 3 3 3 4 4 5 5 5 6 9 10 11 12 13 12 12 11 11 12 12 13 13 13 13 13
2 2 1 2 2 2 2 2 1 1 1 0 0 1 2 3 2 3 2 2 3 3 3 5 5 5 5 5 7 11 12 13 13 13 13 12 12 13 14 13 13 14 14
2 2 2 2 2 2 3 3 3 3 2 2 1 1 1 3 3 3 3 2 3 3 3 4 4 5 5 5 6 9 11 13 14 14 14 13 13 13 13 13 14 15 15
2 2 2 2 2 2 3 3 3 2 3 3 2 2 2 2 2 3 3 3 3 4 4 4 4 5 5 5 7 9 11 13 14 14 14 14 14 13 14 14 15 15 15
3 3 3 2 2 3 3 3 3 3 3 3 3 2 2 2 3 3 5 4 3 3 4 4 4 4 5 5 5 8 10 11 13 13 13 14 14 14 14 14 14 15 15
2 3 3 2 2 2 3 4 4 4 4 4 3 2 2 2 2 3 4 5 5 4 4 3 3 4 5 5 7 9 10 10 11 12 12 13 13 13 13 14 14 15 16
2 3 3 2 3 3 3 3 3 4 4 4 4 3 3 3 3 3 4 5 5 4 3 3 3 3 5 5 6 9 9 10 11 11 12 12 12 13 13 14 14 15 16
3 3 3 3 3 3 3 3 3 4 4 4 4 4 3 3 3 3 3 3 5 5 3 4 3 3 4 5 7 9 8 10 11 11 11 11 11 12 13 14 14 14 15
3 3 3 3 3 3 3 3 3 4 4 4 4 4 4 3 3 3 3 4 4 5 6 4 3 3 4 5 7 6 7 10 12 12 12 12 12 12 13 13 14 14 15
2 3 3 3 3 3 3 3 3 3 3 3 3 4 4 3 3 3 3 4 4 5 6 4 4 4 4 5 9 8 8 11 12 12 13 12 12 12 12 12 13 14 15
2 3 3 3 3 3 3 3 3 3 3 4 4 4 4 4 3 3 3 4 4 4 7 6 4 4 4 4 6 6 8 7 8 12 13 13 12 12 12 12 13 14 14
2 3 3 3 3 3 2 3 3 3 3 4 4 4 5 4 4 3 3 4 4 4 6 8 5 4 4 4 5 5 6 7 7 11 13 13 12 12 12 12 13 13 13
2 2 2 2 3 3 2 3 3 3 4 4 4 4 4 4 4 4 4 4 4 4 4 5 5 4 4 4 4 5 5 5 7 9 10 11 12 12 11 12 12 12 12
2 2 2 2 2 3 3 3 3 3 3 4 4 4 4 4 4 4 4 4 3 3 3 4 4 4 4 3 3 4 5 4 5 6 8 9 10 11 11 12 12 12 12
2 2 2 2 3 2 3 3 3 3 3 3 3 3 3 5 5 5 4 3 4 4 3 4 4 4 4 3 3 3 5 5 5 4 4 5 5 5 7 10 11 11 11
2 2 2 2 3 3 4 5 3 2 2 3 3 3 4 5 6 6 7 6 5 5 4 4 4 5 5 4 4 4 4 5 5 3 4 6 4 5 5 5 9 10 9
2 2 2 2 3 4 5 5 4 3 2 2 3 3 4 4 5 4 5 7 6 6 7 5 5 6 6 5 5 5 4 5 6 5 4 6 5 5 5 7 9 9 8
1 2 2 3 3 4 5 5 5 3 2 3 3 3 4 4 4 4 3 4 4 5 6 5 5 5 6 5 5 5 5 4 4 4 3 4 4 4 5 5 7 7 6
1 2 2 2 3 4 5 5 4 2 2 3 4 3 4 4 6 5 3 3 4 4 4 5 6 6 7 6 4 2 3 3 5 4 2 2 3 4 4 4 4 5 5
1 2 2 2 3 3 5 5 4 1 2 3 3 4 6 5 6 5 3 3 4 4 3 4 4 5 4 4 5 3 3 4 4 3 2 1 2 3 3 2 3 4 4
Wind_Direction
87 29 7 9 349 343 346 327 311 294 285 279 273 260 250 250 250 254 261 261 260 260 262 263 262 264 266 267 269 271 274 276 278 278 277 275 274 276 276 276 276 270 267
148 272 297 312 315 300 299 293 291 277 271 275 274 270 262 258 252 252 256 261 263 262 260 261 263 266 267 269 271 272 273 274 274 274 274 277 273 272 275 275 275 276 271
187 233 249 282 296 294 299 321 319 309 293 289 282 280 272 268 261 256 255 255 257 260 265 263 266 268 269 270 272 274 274 275 273 273 273 274 276 274 273 275 276 275 271
216 221 248 266 290 294 296 283 288 293 292 290 288 283 278 272 265 262 258 254 250 252 260 265 268 270 272 272 275 277 275 275 275 274 275 275 274 277 277 276 275 275 273
220 211 254 261 279 293 271 275 297 268 274 291 287 284 282 276 264 265 261 252 249 252 253 262 266 268 271 274 277 278 278 277 274 274 275 274 274 277 276 276 276 275 275
227 230 252 263 269 265 256 237 259 288 264 279 295 298 286 277 261 256 259 259 256 257 259 259 261 266 270 273 276 279 279 279 276 275 274 274 275 276 277 276 276 277 275
227 236 249 253 256 240 241 233 239 269 283 293 322 319 309 286 261 252 260 261 266 275 269 261 258 260 269 274 276 278 279 280 279 278 276 279 278 277 276 276 277 278 279
238 242 232 238 242 241 248 236 221 240 274 260 327 330 321 318 312 298 281 260 269 286 285 284 269 262 266 270 275 278 277 278 279 279 277 278 280 281 276 276 277 279 279
242 251 245 247 252 232 233 234 223 223 238 256 200 181 229 263 307 296 294 287 288 296 295 299 288 281 276 272 273 278 279 279 277 278 278 278 278 279 281 281 283 282 280
250 255 246 239 247 247 242 237 236 240 216 236 249 229 226 226 258 295 293 290 296 294 289 294 286 277 280 279 277 283 286 282 277 276 278 278 277 277 280 282 284 284 285
258 257 248 238 236 242 247 245 241 243 231 230 232 240 252 259 237 248 279 287 297 286 285 284 276 274 281 283 281 287 290 288 284 280 281 281 279 279 279 280 283 284 284
265 266 259 245 247 245 242 244 233 231 236 236 235 229 230 236 241 243 267 285 290 293 292 287 273 269 279 279 283 292 295 295 293 291 289 288 287 286 285 285 284 284 284
260 267 275 254 247 247 248 246 232 231 233 230 231 236 234 244 248 252 266 282 291 295 286 281 268 266 285 284 286 296 296 295 294 292 292 291 293 293 293 291 289 288 286
251 257 258 261 264 256 252 247 241 239 238 235 243 239 243 249 247 248 249 267 290 290 279 274 286 273 283 290 294 299 299 300 298 295 292 291 292 292 293 292 291 290 289
263 261 261 264 268 266 252 240 244 243 241 242 242 242 245 251 245 244 244 237 249 279 285 271 278 285 293 300 303 302 296 297 299 299 297 293 290 289 291 288 287 288 287
270 272 270 269 270 269 267 251 249 248 243 249 246 245 249 252 250 246 245 247 243 253 272 270 271 286 295 304 306 303 296 299 297 298 298 293 291 291 293 287 286 286 284
267 268 271 273 270 266 268 262 254 255 250 257 256 252 256 255 250 254 254 252 251 248 266 281 279 281 284 292 302 298 298 293 291 297 298 293 290 291 295 290 285 285 284
267 269 271 273 276 275 268 260 267 267 257 259 260 258 260 260 256 254 251 253 254 250 258 276 284 285 283 284 293 297 302 297 290 296 297 297 292 291 292 295 291 286 286
288 284 276 274 279 279 273 261 258 266 267 262 264 264 264 258 261 263 259 257 260 266 259 268 282 288 288 292 300 301 300 299 296 300 301 301 297 295 296 297 299 293 292
292 289 285 281 279 279 273 264 262 267 276 279 271 265 267 262 259 262 262 256 258 265 269 273 282 290 289 289 292 301 305 299 298 304 301 302 304 302 299 299 303 303 300
294 290 291 295 289 276 266 266 265 271 277 287 287 277 272 279 280 275 271 261 255 256 264 271 278 291 291 300 294 294 295 304 300 295 298 304 308 307 307 305 305 306 304
286 295 294 296 295 286 292 296 294 282 288 287 291 297 289 281 286 289 286 281 270 259 257 261 272 277 281 286 292 292 296 304 305 297 304 304 306 300 301 307 311 312 306
289 295 301 300 292 286 295 301 308 306 290 283 283 288 295 297 297 286 290 296 291 283 271 261 262 269 277 281 283 286 287 287 287 294 300 300 300 296 304 309 309 311 311
288 291 299 304 305 300 306 312 322 320 297 285 275 273 278 288 290 288 287 297 289 280 276 272 262 268 271 272 264 269 276 285 291 290 282 288 297 301 306 311 310 313 319
310 301 303 302 304 306 313 320 331 322 306 298 294 291 292 284 294 302 292 289 297 297 304 297 291 291 288 286 284 290 294 297 297 296 282 269 292 307 306 303 318 327 327
299 313 314 306 295 299 317 327 334 311 303 304 303 298 297 297 301 308 286 270 285 294 308 318 317 321 321 315 309 286 271 283 295 292 280 288 294 322 320 314 328 345 345
Height
1503 1503 1503 1503 1504 1504 1504 1504 1504 1504 1504 1504 1505 1505 1505 1505 1505 1505 1505 1505 1506 1506 1506 1505 1505 1505 1505 1505 1505 1505 1504 1504 1504 1503 1503 1503 1502 1502 1501 1501 1500 1499 1499
1500 1500 1500 1501 1501 1501 1501 1501 1501 1501 1501 1501 1501 1501 1501 1501 1501 1501 1501 1501 1501 1502 1502 1502 1501 1501 1501 1501 1501 1500 1500 1500 1500 1499 1499 1499 1498 1498 1497 1496 1496 1495 1494
1497 1497 1497 1497 1498 1498 1498 1498 1498 1497 1497 1497 1497 1497 1497 1497 1497 1497 1497 1497 1497 1497 1497 1497 1497 1497 1497 1497 1496 1496 1496 1496 1495 1495 1494 1494 1494 1493 1493 1492 1491 1491 1490
1494 1494 1494 1494 1494 1495 1494 1494 1494 1494 1494 1493 1493 1493 1493 1493 1493 1493 1493 1493 1493 1493 1493 1493 1493 1492 1492 1492 1492 1492 1491 1491 1491 1490 1490 1489 1489 1488 1488 1487 1486 1486 1485
1491 1491 1491 1491 1491 1491 1491 1491 1491 1490 1490 1489 1489 1489 1489 1488 1488 1488 1488 1489 1489 1489 1488 1488 1488 1488 1488 1487 1487 1487 1487 1486 1486 1485 1485 1484 1484 1483 1482 1482 1481 1480 1480
1487 1487 1487 1488 1488 1487 1487 1487 1487 1487 1487 1486 1485 1485 1484 1484 1484 1484 1484 1484 1484 1484 1484 1484 1483 1483 1483 1482 1482 1482 1482 1481 1481 1480 1479 1479 1478 1477 1477 1476 1476 1475 1474
1484 1484 1484 1484 1484 1484 1484 1483 1483 1483 1483 1482 1482 1480 1480 1480 1479 1479 1479 1480 1480 1480 1480 1479 1478 1478 1477 1477 1477 1476 1476 1476 1475 1475 1474 1474 1473 1472 1471 1471 1470 1469 1469
1480 1480 1480 1480 1480 1480 1480 1480 1480 1479 1479 1479 1478 1477 1476 1476 1475 1475 1475 1475 1475 1475 1475 1474 1474 1473 1472 1472 1471 1471 1471 1470 1470 1469 1469 1468 1468 1467 1466 1465 1464 1463 1463
1476 1476 1476 1476 1476 1476 1476 1476 1476 1476 1475 1475 1476 1476 1475 1473 1471 1470 1471 1471 1471 1471 1470 1470 1469 1468 1467 1466 1466 1465 1465 1465 1464 1464 1464 1463 1462 1462 1461 1460 1459 1458 1458
1472 1472 1472 1472 1472 1472 1472 1472 1472 1472 1472 1471 1472 1472 1473 1471 1471 1467 1466 1467 1467 1466 1465 1465 1464 1463 1462 1461 1461 1460 1460 1459 1459 1458 1458 1457 1456 1455 1455 1454 1454 1453 1452
1468 1468 1468 1468 1468 1468 1468 1468 1468 1468 1468 1468 1467 1467 1467 1467 1467 1466 1462 1461 1461 1461 1460 1460 1459 1458 1457 1456 1455 1455 1454 1454 1453 1452 1451 1450 1450 1449 1448 1447 1447 1447 1446
1464 1464 1464 1464 1464 1464 1464 1464 1464 1464 1464 1464 1463 1463 1463 1463 1462 1462 1460 1457 1456 1455 1455 1455 1454 1453 1453 1451 1450 1450 1449 1448 1447 1446 1445 1444 1443 1442 1442 1441 1440 1439 1439
1460 1460 1460 1460 1460 1460 1460 1460 1460 1460 1460 1459 1459 1459 1459 1459 1459 1458 1457 1454 1452 1451 1450 1449 1449 1448 1448 1447 1445 1444 1443 1442 1442 1441 1440 1438 1438 1436 1435 1434 1433 1432 1432
1456 1456 1456 1456 1455 1455 1455 1455 1455 1455 1455 1455 1455 1455 1454 1454 1455 1454 1454 1452 1449 1447 1445 1444 1444 1444 1442 1441 1440 1439 1437 1437 1436 1435 1434 1433 1432 1431 1429 1428 1427 1426 1426
1452 1452 1452 1451 1451 1451 1451 1450 1450 1450 1450 1450 1450 1450 1450 1450 1450 1449 1449 1449 1448 1443 1440 1439 1440 1439 1438 1436 1435 1433 1432 1431 1430 1429 1428 1427 1426 1424 1423 1421 1421 1420 1419
1448 1448 1447 1447 1446 1446 1446 1446 1446 1446 1446 1446 1446 1446 1445 1445 1445 1444 1444 1444 1443 1441 1437 1435 1435 1434 1433 1432 1430 1429 1427 1426 1425 1424 1422 1421 1420 1418 1416 1415 1414 1414 1414
1444 1444 1443 1443 1442 1442 1442 1442 1442 1441 1441 1441 1441 1441 1441 1441 1440 1440 1439 1439 1438 1437 1434 1431 1431 1430 1428 1427 1425 1424 1422 1421 1420 1418 1417 1416 1415 1413 1411 1410 1409 1408 1408
1440 1440 1439 1439 1438 1438 1438 1438 1437 1437 1437 1437 1437 1436 1436 1436 1435 1435 1435 1434 1433 1432 1430 1427 1425 1425 1424 1422 1421 1419 1418 1416 1415 1414 1412 1411 1409 1408 1406 1404 1403 1402 1402
1436 1436 1435 1435 1434 1434 1434 1434 1434 1433 1433 1433 1433 1433 1432 1432 1431 1431 1430 1429 1428 1427 1426 1424 1421 1420 1419 1418 1416 1415 1414 1412 1411 1409 1408 1406 1405 1403 1401 1400 1398 1397 1396
1433 1432 1432 1431 1431 1431 1431 1431 1430 1430 1429 1429 1429 1429 1428 1428 1427 1427 1426 1425 1424 1423 1422 1420 1418 1416 1415 1414 1413 1411 1409 1408 1407 1405 1404 1402 1400 1398 1396 1395 1394 1392 1391
1430 1429 1429 1428 1428 1427 1427 1427 1427 1426 1425 1425 1425 1425 1424 1424 1423 1423 1422 1421 1420 1419 1418 1416 1414 1413 1411 1410 1409 1408 1406 1404 1403 1402 1399 1397 1396 1393 1391 1390 1388 1387 1386
1427 1426 1426 1425 1424 1424 1424 1424 1424 1423 1422 1422 1421 1421 1421 1420 1419 1419 1419 1418 1417 1416 1414 1413 1411 1410 1408 1407 1406 1405 1403 1401 1398 1398 1396 1393 1392 1389 1387 1386 1384 1383 1382
1424 1423 1423 1422 1421 1421 1421 1421 1420 1419 1419 1418 1418 1418 1417 1416 1416 1415 1414 1414 1413 1412 1411 1410 1408 1407 1406 1405 1403 1402 1400 1399 1396 1395 1393 1389 1388 1385 1383 1382 1380 1380 1379
1421 1421 1420 1419 1418 1418 1418 1418 1417 1416 1415 1415 1415 1414 1413 1413 1412 1412 1411 1409 1408 1408 1407 1406 1405 1404 1403 1402 1401 1400 1398 1395 1393 1391 1390 1386 1383 1381 1380 1378 1377 1377 1376
1419 1418 1417 1416 1416 1416 1416 1415 1414 1413 1412 1412 1411 1411 1410 1409 1409 1408 1407 1406 1404 1404 1403 1403 1402 1401 1400 1399 1398 1396 1394 1392 1389 1387 1386 1384 1380 1378 1377 1375 1375 1374 1374
1417 1416 1415 1414 1414 1413 1413 1412 1412 1411 1409 1409 1408 1407 1407 1406 1405 1405 1404 1403 1401 1400 1400 1399 1399 1398 1397 1395 1394 1393 1392 1390 1387 1385 1383 1381 1379 1377 1375 1373 1373 1372 1372